Terminal Aerodrome Forecast
Issued by NWS Shreveport, LA

Home | Current Version | Previous Version | Text Only | Print | Product List | Glossary On
Versions: 1 2 3 4 5 6 7 8 9 10 11 12 13 14 15 16 17 18
489
FTUS44 KSHV 171522 AAB
TAFELD
TAF AMD
KELD 171522Z 1715/1812 30009KT P6SM VCSH SCT010 BKN040
      TEMPO 1715/1717 SHRA BKN008
     FM172000 22010KT P6SM BKN040
     FM180200 23004KT P6SM BKN120=

USA.gov is the U.S. government's official web portal to all federal, state and local government web resources and services.